EHI
6 7 14 27 46 70 88 95 98 99 98 96 91 80 62 45 32 23 15 9 8 8 7 6 5 4 3 2 1 0 0 0 0 0 0 0 0 0 0 0 0 0 0
21 21 25 34 48 65 81 90 95 98 97 93 86 72 52 34 22 15 9 4 3 3 3 2 2 1 1 1 0 0 0 0 0 0 0 0 0 0 0 0 0 0 0
49 48 48 51 57 64 74 84 92 94 92 85 73 56 37 22 12 6 2 0 0 0 0 0 0 0 0 0 0 0 0 0 0 0 0 0 0 0 0 0 0 0 0
72 70 67 66 70 70 73 81 86 86 81 71 57 43 29 17 7 2 0 0 0 0 0 0 0 0 0 0 0 0 0 0 0 0 0 0 0 0 0 0 0 0 0
70 69 66 68 70 72 73 74 73 69 62 52 42 33 22 11 4 1 0 0 0 0 0 0 0 0 0 0 0 0 0 0 0 0 0 0 0 0 0 0 0 0 0
44 45 47 49 55 61 63 59 52 44 38 32 25 19 11 5 1 0 0 0 0 0 0 0 0 0 0 0 0 0 0 0 0 0 0 0 0 0 0 0 0 0 0
17 19 22 24 29 36 39 36 28 21 18 15 11 7 4 2 0 0 0 0 0 0 0 0 0 0 0 0 0 0 0 0 0 0 0 0 0 0 0 0 0 0 0
4 4 5 7 9 12 14 13 10 8 6 5 3 2 1 1 0 0 0 0 0 0 0 0 0 0 0 0 0 0 0 0 0 0 0 0 0 0 0 0 0 0 0
1 0 0 1 1 1 1 2 3 3 2 1 1 1 0 0 0 0 0 0 0 0 0 0 0 0 0 0 0 0 0 0 0 0 0 0 0 0 0 0 0 0 0
0 0 0 0 0 0 0 1 1 1 0 0 0 0 0 0 0 0 0 0 0 0 0 0 0 0 0 0 0 0 0 0 0 0 0 0 0 0 0 0 0 0 0
0 0 0 0 0 0 0 0 0 0 0 0 0 0 0 0 0 0 0 0 0 0 0 0 0 0 0 0 0 0 0 0 0 0 0 0 0 0 0 0 0 0 0
0 0 0 0 0 0 0 0 0 0 0 0 0 0 0 0 0 0 0 0 0 0 0 0 0 0 0 0 0 0 0 0 0 0 0 0 0 0 0 0 0 0 0
0 0 0 0 0 0 0 0 0 0 0 0 0 0 0 0 0 0 0 0 0 0 0 0 0 0 0 0 0 0 0 0 0 0 0 0 0 0 0 0 0 0 0
0 0 0 0 0 0 0 0 0 0 0 0 0 0 0 0 0 0 0 0 0 0 0 0 0 0 0 0 0 0 0 0 0 0 0 0 0 0 0 0 0 0 0
0 0 0 0 0 0 0 0 0 0 0 0 0 0 0 0 0 0 0 0 0 0 0 0 0 0 0 0 0 0 0 0 0 0 0 0 0 0 0 0 0 0 0
0 0 0 0 0 0 0 0 0 0 0 0 0 0 0 0 0 0 0 0 0 0 0 0 0 0 0 0 0 0 0 0 0 0 0 0 0 0 0 0 0 0 0
0 0 0 0 0 0 0 0 0 0 0 0 0 0 0 0 0 0 0 0 0 0 0 0 0 0 0 0 0 0 0 0 0 0 0 0 0 0 0 0 0 0 0
0 0 0 0 0 0 0 0 0 0 0 0 0 0 0 0 0 0 0 0 0 0 0 0 0 0 0 0 0 0 0 0 0 0 0 0 0 0 0 0 0 0 0
0 0 0 0 0 0 0 0 0 0 0 0 0 0 0 0 0 0 0 0 0 0 0 0 0 0 0 0 0 0 0 0 0 0 0 0 0 0 0 0 0 0 0
0 0 0 0 0 0 0 0 0 0 0 0 0 0 0 0 0 0 0 0 0 0 0 0 0 0 0 0 0 0 0 0 0 0 0 0 0 0 0 0 0 0 0
0 0 0 0 0 0 0 0 0 0 0 0 0 0 0 0 0 0 0 0 0 0 0 0 0 0 0 0 0 0 0 0 0 0 0 0 0 0 0 0 0 0 0
0 0 0 0 0 0 0 0 0 0 0 0 0 0 0 0 0 0 0 0 0 0 0 0 0 0 0 0 0 0 0 0 0 0 0 0 0 0 0 0 0 0 0
0 0 0 0 0 0 0 0 0 0 0 0 0 0 0 0 0 0 0 0 0 0 0 0 0 0 0 0 0 0 0 0 0 0 0 0 0 0 0 0 0 0 0
0 0 0 0 0 0 0 0 0 0 0 0 0 0 0 0 0 0 0 0 0 0 0 0 0 0 0 0 0 0 0 0 0 0 0 0 0 0 0 0 0 0 0
0 0 0 0 0 0 0 0 0 0 0 0 0 0 0 0 0 0 0 0 0 0 0 0 0 0 0 0 0 0 0 0 0 0 0 0 0 0 0 0 0 0 0
0 0 0 0 0 0 0 0 0 0 0 0 0 0 0 0 0 0 0 0 0 0 0 0 0 0 0 0 0 0 0 0 0 0 0 0 0 0 0 0 0 0 0
Wind_Speed
7 6 8 11 12 13 14 14 14 14 12 10 10 8 7 6 6 6 6 4 3 2 2 3 4 3 3 4 4 3 2 1 1 2 3 3 3 3 2 2 2 1 1
6 5 4 7 11 13 14 15 15 15 14 11 9 8 9 7 6 6 6 6 4 4 4 5 5 5 5 5 4 2 1 1 1 3 3 4 4 4 4 3 4 4 4
9 7 4 1 5 9 12 12 13 14 13 13 10 9 7 6 4 5 3 3 4 4 4 5 6 6 5 4 4 4 3 2 1 1 3 3 4 2 5 6 5 5 5
11 11 9 7 4 2 6 9 11 12 13 14 13 14 9 7 6 5 4 4 4 4 5 5 5 5 5 5 4 3 2 2 2 2 1 2 3 5 4 6 7 7 7
12 12 12 10 9 7 6 8 10 11 12 11 11 10 8 6 6 6 6 6 5 6 7 7 7 6 5 6 5 4 3 1 1 1 1 2 3 5 6 7 5 6 7
12 12 12 12 12 11 10 10 10 10 9 9 8 8 9 9 8 7 7 6 5 6 9 9 7 7 6 6 5 4 4 3 1 1 2 3 4 5 6 8 8 8 7
11 12 13 13 13 13 12 12 13 12 11 10 9 8 8 8 8 7 7 7 6 6 8 8 7 6 6 6 4 4 4 2 1 2 3 4 5 5 7 8 9 10 9
12 13 13 13 13 14 13 13 14 13 12 11 11 10 9 7 7 8 8 8 7 8 8 8 7 7 6 5 3 3 2 1 1 2 3 5 5 6 7 8 10 11 11
12 12 13 13 13 14 14 13 14 13 13 13 12 12 11 11 11 10 10 9 8 8 9 8 7 6 5 4 3 3 2 1 2 3 4 6 6 6 7 8 9 11 12
11 12 12 12 12 12 13 14 14 14 13 13 12 11 12 12 11 11 11 10 10 8 8 7 7 6 5 4 2 2 2 2 2 3 5 7 7 7 7 8 8 9 11
10 10 10 11 11 12 13 13 13 14 13 14 13 13 12 12 12 11 11 10 9 8 7 7 6 5 5 3 2 2 2 4 4 5 6 7 8 8 8 8 8 9 9
10 10 10 10 11 12 13 13 13 13 13 13 13 13 12 12 12 11 10 9 8 7 6 6 5 4 4 3 3 3 4 5 6 7 7 8 7 8 9 8 9 9 9
10 9 9 10 11 12 12 12 12 12 12 12 13 12 12 12 11 11 9 8 7 6 5 5 4 4 3 3 3 4 5 6 7 7 8 9 9 10 9 9 10 9 9
10 10 9 10 10 10 11 11 11 11 11 11 12 12 11 11 10 9 8 7 7 6 5 4 4 3 3 4 5 6 6 7 8 8 8 9 9 10 10 9 10 10 10
11 10 9 9 9 10 10 10 10 10 10 11 12 11 10 10 9 8 7 6 5 4 3 3 3 3 2 6 8 9 8 8 9 9 9 9 9 10 10 10 11 12 10
11 10 10 9 9 9 9 9 10 9 10 11 10 9 8 8 7 6 5 5 4 4 3 3 3 3 6 8 8 10 11 10 10 10 9 9 9 7 10 13 14 15 15
10 10 9 8 8 8 9 9 9 9 10 9 8 7 6 6 5 5 5 4 4 4 4 4 4 4 7 6 7 10 12 11 9 10 9 8 8 9 9 11 15 16 16
10 9 8 9 9 9 9 9 9 9 8 8 6 5 5 5 5 5 5 4 4 4 4 4 5 4 5 5 8 13 12 9 9 9 9 9 10 8 10 14 15 15 13
9 9 9 10 9 9 9 9 9 8 8 7 6 5 5 5 5 5 5 4 4 4 3 4 4 5 4 5 7 13 11 8 10 10 9 9 10 8 11 14 14 14 12
9 9 9 10 9 8 7 8 8 7 7 6 6 6 6 5 5 5 4 4 3 3 4 4 4 5 5 3 5 11 9 8 9 9 9 5 6 11 13 13 13 13 13
10 10 9 9 8 7 7 7 7 7 6 6 6 6 5 5 4 3 3 3 3 3 4 4 3 3 4 2 2 7 8 9 10 8 8 6 8 13 14 13 11 11 14
10 10 9 8 7 6 6 7 7 6 5 5 5 5 4 3 3 2 2 2 3 2 3 3 4 3 3 4 5 7 9 10 10 8 7 8 12 15 16 11 10 14 13
10 9 9 8 6 5 5 6 6 4 4 4 4 4 3 2 2 1 1 2 2 3 4 4 5 5 5 4 4 8 10 10 9 8 10 12 14 14 10 7 12 11 7
9 8 8 8 7 6 5 5 4 3 3 3 3 2 1 1 1 2 2 3 4 4 5 5 6 6 6 6 8 9 8 8 8 8 9 10 9 9 8 8 7 6 6
8 7 7 7 7 6 5 5 4 2 2 2 1 1 1 2 1 1 3 4 5 5 6 7 6 7 7 8 11 9 8 8 9 10 7 7 8 8 8 9 8 8 7
8 7 7 7 6 6 6 5 4 2 1 1 0 1 1 1 2 1 2 3 1 4 1 2 5 5 6 9 10 10 11 11 12 9 6 7 7 8 8 9 9 8 8
Wind_Direction
286 270 237 219 206 197 192 189 187 179 173 166 161 154 146 134 123 119 122 127 142 167 161 149 139 136 126 118 119 114 128 193 253 252 247 240 243 259 250 253 250 196 257
335 325 270 226 211 202 195 191 187 178 174 167 158 152 140 137 139 148 148 154 157 164 166 168 157 143 133 136 141 149 186 190 222 263 266 252 222 220 224 231 231 245 248
5 9 4 294 211 201 195 190 184 172 165 152 140 135 131 137 150 152 149 139 144 157 161 170 154 145 147 150 149 161 184 180 178 283 270 271 278 234 198 226 237 243 264
29 33 39 44 57 135 168 167 161 155 152 151 154 154 158 158 159 146 134 125 125 136 133 128 122 123 121 129 135 128 144 169 178 169 282 311 323 293 271 211 218 232 251
42 45 47 52 57 70 102 129 136 140 145 150 152 153 147 130 125 125 125 111 99 97 98 98 99 98 97 100 100 102 102 123 171 195 210 232 242 254 274 284 272 252 253
46 47 50 54 57 63 76 92 103 105 109 113 121 127 127 128 132 132 123 108 96 88 88 90 91 93 95 96 97 99 95 81 69 319 284 273 278 279 283 283 281 280 278
46 43 44 47 51 57 64 75 82 80 80 85 87 96 107 117 121 122 113 109 102 95 92 93 95 94 95 99 104 104 99 104 134 267 285 292 293 300 297 291 290 290 287
48 45 44 46 49 54 59 67 73 74 74 77 77 78 83 87 89 94 102 103 100 96 97 96 97 99 102 106 111 120 119 131 250 297 313 299 290 293 288 290 296 293 289
52 48 46 48 52 55 58 66 72 74 73 76 78 78 80 85 91 94 96 97 100 105 104 103 102 101 100 98 101 81 68 12 310 301 287 287 292 284 290 291 288 291 294
59 54 51 54 57 63 66 68 73 75 76 78 80 83 85 91 96 96 95 97 99 101 105 102 101 100 99 98 94 108 56 318 304 303 305 301 297 307 290 285 286 284 287
68 63 63 64 69 72 75 77 78 79 79 80 83 86 87 89 91 93 96 98 100 106 107 108 108 105 99 86 56 12 336 317 318 310 306 303 307 300 303 294 288 287 289
82 76 75 76 76 75 74 75 78 81 84 86 87 87 89 90 90 90 92 94 94 91 92 96 95 88 74 50 20 355 342 327 320 317 312 305 303 298 289 294 295 295 295
99 92 85 80 77 77 78 79 80 82 86 89 89 88 88 89 88 88 87 87 88 85 84 86 83 73 59 38 10 344 330 325 319 314 309 307 303 296 298 301 295 293 292
110 102 93 87 83 82 82 82 82 84 88 89 89 87 85 84 83 83 81 77 76 77 74 70 65 50 29 14 354 335 326 321 315 310 303 299 299 301 304 296 292 294 296
112 106 101 96 94 91 89 86 85 85 88 90 87 84 82 81 80 76 74 73 71 73 68 60 55 31 23 26 357 333 322 319 311 306 303 301 305 300 296 301 307 307 301
117 113 109 106 102 100 97 94 91 88 89 89 86 84 83 81 81 82 82 76 67 58 51 40 27 16 41 43 4 332 321 313 308 310 310 306 289 287 281 279 288 294 293
115 112 111 107 105 103 102 102 100 98 95 94 93 92 93 90 86 84 76 67 58 49 37 27 17 31 69 35 355 337 312 306 311 311 310 309 313 305 309 312 300 287 276
109 108 109 107 105 104 102 102 101 102 102 103 105 108 103 93 84 72 63 52 43 35 26 17 6 358 65 40 350 330 302 305 312 310 307 306 310 332 336 315 301 298 297
105 108 111 111 108 107 109 111 111 112 113 116 114 101 92 85 76 68 58 44 32 25 11 13 357 351 47 50 350 330 314 315 316 313 310 309 314 353 331 308 302 304 305
104 108 110 109 108 111 119 118 117 119 118 111 103 95 83 74 70 63 47 44 26 15 358 10 356 347 357 50 347 330 317 323 318 313 309 308 335 328 316 310 308 309 317
109 111 110 108 110 120 123 120 120 114 108 104 98 88 83 80 71 63 45 24 10 13 1 355 342 342 346 5 26 332 326 328 316 312 315 331 346 320 309 302 302 310 309
110 111 110 110 116 126 128 120 111 109 109 106 100 93 81 67 74 61 36 6 341 333 347 346 343 352 353 350 356 318 307 305 309 311 321 332 328 312 303 302 312 307 301
113 115 117 117 115 113 109 109 113 119 119 113 99 94 90 72 44 357 352 341 347 348 354 351 350 352 349 357 341 318 310 302 307 318 318 310 304 303 302 309 309 306 317
121 123 117 110 104 101 94 94 100 112 125 117 109 104 98 83 64 339 355 2 1 360 358 356 351 349 347 358 352 337 332 330 326 327 318 308 303 309 324 323 324 332 340
114 109 101 98 97 95 91 90 94 109 119 119 110 96 81 52 5 27 26 4 33 24 349 353 351 349 346 353 335 323 330 333 331 322 321 341 346 347 345 343 342 342 345
111 104 99 95 95 94 89 83 79 72 68 121 54 328 353 14 345 350 120 130 48 134 172 331 338 352 358 331 327 329 325 319 318 321 342 348 345 341 339 339 339 343 347